FW4701 Weather Reports


Display with metric or nautical units.
time (UTC)temp
F
wind
direction
speed
MPH
gust
MPH
rain 1hr
in
rain 24hr
in
rain mn
in
humidity
%
barometer
mb
20260510170510 59 305 4.0 13.0 0.00 0.00 0.00 33 1019.8
20260510170021 59 228 2.0 11.0 0.00 0.00 0.00 33 1019.5
20260510170019 82 117 5.0 15.0 0.00 0.00 0.00 49 1013.7
20260510165507 59 267 3.0 11.0 0.00 0.00 0.00 33 1019.6
20260510165006 59 309 2.0 7.0 0.00 0.00 0.00 34 1019.5
20260510164521 59 333 2.0 9.0 0.00 0.00 0.00 34 1019.5
20260510164508 80 127 9.0 14.0 0.00 0.00 0.00 50 1014.0
20260510164007 59 35 3.0 9.0 0.00 0.00 0.00 34 1019.4
20260510163508 59 308 2.0 13.0 0.00 0.00 0.00 33 1019.3
20260510163020 59 97 2.0 13.0 0.00 0.00 0.00 35 1019.3
20260510163007 79 130 7.0 18.0 0.00 0.00 0.00 51 1013.8
20260510162506 58 265 4.0 12.0 0.00 0.00 0.00 34 1019.3
20260510162007 58 273 1.0 10.0 0.00 0.00 0.00 34 1019.3
20260510161518 59 18 4.0 10.0 0.00 0.00 0.00 34 1019.2
20260510161506 79 106 10.0 14.0 0.00 0.00 0.00 50 1014.0
20260510161009 59 300 1.0 6.0 0.00 0.00 0.00 36 1019.2
20260510160507 59 339 1.0 8.0 0.00 0.00 0.00 36 1019.0
20260510160059 78 106 5.0 15.0 0.00 0.00 0.00 48 1014.2
20260510160023 59 297 2.0 8.0 0.00 0.00 0.00 37 1019.2
20260510155507 59 242 3.0 7.0 0.00 0.00 0.00 35 1019.2
20260510155008 59 14 1.0 10.0 0.00 0.00 0.00 35 1018.9
20260510154557 76 114 7.0 13.0 0.00 0.00 0.00 47 1014.1
20260510154521 59 251 4.0 10.0 0.00 0.00 0.00 35 1019.0
20260510154007 59 167 1.0 6.0 0.00 0.00 0.00 37 1019.1
20260510153504 59 211 2.0 6.0 0.00 0.00 0.00 37 1019.0
20260510153055 76 93 11.0 14.0 0.00 0.00 0.00 47 1014.0
20260510153023 59 217 0.0 4.0 0.00 0.00 0.00 37 1019.0
20260510152509 58 162 1.0 5.0 0.00 0.00 0.00 38 1019.1
20260510152007 58 202 1.0 5.0 0.00 0.00 0.00 39 1019.1
20260510151552 75 120 7.0 14.0 0.00 0.00 0.00 46 1014.2
20260510151516 57 149 1.0 5.0 0.00 0.00 0.00 39 1019.1
20260510151008 57 144 1.0 5.0 0.00 0.00 0.00 39 1019.1
20260510150506 57 24 0.0 4.0 0.00 0.00 0.00 40 1019.1
20260510150047 75 127 10.0 17.0 0.00 0.00 0.00 46 1014.2
20260510150004 57 67 2.0 4.0 0.00 0.00 0.00 40 1019.0
20260510145503 56 289 0.0 4.0 0.00 0.00 0.00 39 1019.1
20260510145003 56 19 1.0 4.0 0.00 0.00 0.00 39 1019.2
20260510144541 75 112 10.0 16.0 0.00 0.00 0.00 45 1014.3
20260510144508 56 224 1.0 4.0 0.00 0.00 0.00 41 1019.1
20260510144002 55 83 1.0 4.0 0.00 0.00 0.00 42 1019.1
20260510143503 55 67 0.0 4.0 0.00 0.00 0.00 41 1019.0
20260510143042 74 103 11.0 15.0 0.00 0.00 0.00 46 1014.4
20260510143015 56 70 1.0 4.0 0.00 0.00 0.00 42 1019.0
20260510142503 56 41 2.0 4.0 0.00 0.00 0.00 42 1019.1
20260510142003 56 275 1.0 3.0 0.00 0.00 0.00 40 1018.9
20260510141540 74 99 8.0 13.0 0.00 0.00 0.00 45 1014.4
20260510141517 56 88 1.0 3.0 0.00 0.00 0.00 41 1018.9
20260510141008 56 87 0.0 4.0 0.00 0.00 0.00 40 1018.8
20260510140504 56 101 0.0 4.0 0.00 0.00 0.00 39 1019.0
20260510140032 74 105 8.0 14.0 0.00 0.00 0.00 43 1014.5
20260510140022 57 69 0.0 4.0 0.00 0.00 0.00 41 1018.8
20260510135506 56 42 0.0 4.0 0.00 0.00 0.00 42 1018.7
20260510135009 56 61 1.0 4.0 0.00 0.00 0.00 41 1018.8
20260510134528 73 95 7.0 13.0 0.00 0.00 0.00 41 1014.5
20260510134506 56 98 1.0 4.0 0.00 0.00 0.00 41 1018.6
20260510134003 56 68 2.0 4.0 0.00 0.00 0.00 40 1018.6
20260510133503 55 65 0.0 4.0 0.00 0.00 0.00 40 1018.4
20260510133026 72 133 8.0 13.0 0.00 0.00 0.00 38 1014.4
20260510133015 55 56 1.0 4.0 0.00 0.00 0.00 38 1018.3
20260510132506 55 90 1.0 6.0 0.00 0.00 0.00 41 1018.4
20260510132004 55 74 1.0 6.0 0.00 0.00 0.00 42 1018.4
20260510131521 71 102 7.0 11.0 0.00 0.00 0.00 36 1014.3
20260510131515 55 88 1.0 4.0 0.00 0.00 0.00 45 1018.4
20260510131004 54 58 1.0 4.0 0.00 0.00 0.00 46 1018.3
20260510130507 54 119 1.0 3.0 0.00 0.00 0.00 48 1018.4
20260510130036 70 122 6.0 12.0 0.00 0.00 0.00 32 1013.9
20260510130018 53 77 0.0 3.0 0.00 0.00 0.00 49 1018.4
20260510125505 52 5 0.0 2.0 0.00 0.00 0.00 56 1018.4
20260510125010 52 360 0.0 2.0 0.00 0.00 0.00 57 1018.3
20260510124524 51 80 0.0 4.0 0.00 0.00 0.00 63 1018.2
20260510124518 69 101 5.0 9.0 0.00 0.00 0.00 28 1013.9
20260510124009 49 89 1.0 4.0 0.00 0.00 0.00 66 1018.1
20260510123503 48 352 0.0 2.0 0.00 0.00 0.00 69 1018.1
20260510123013 68 69 3.0 9.0 0.00 0.00 0.00 26 1013.9
20260510123008 48 352 0.0 2.0 0.00 0.00 0.00 71 1018.0
20260510122504 47 303 0.0 2.0 0.00 0.00 0.00 72 1017.9
20260510122005 46 303 0.0 2.0 0.00 0.00 0.00 73 1017.8
20260510121512 46 319 0.0 2.0 0.00 0.00 0.00 75 1017.8
20260510121508 67 101 3.0 6.0 0.00 0.00 0.00 27 1013.4
20260510121006 45 319 0.0 2.0 0.00 0.00 0.00 76 1017.7
20260510120508 45 319 0.0 1.0 0.00 0.00 0.00 79 1017.6
20260510120015 44 319 0.0 2.0 0.00 0.00 0.00 80 1017.5
20260510120012 0 0.0 0.0 0.00 0.00 0.00 1013.1
20260510115503 44 319 0.0 2.0 0.00 0.00 0.00 82 1017.5
20260510115004 44 355 0.0 2.0 0.00 0.00 0.00 84 1017.4
20260510114606 0 0.0 0.0 0.00 0.00 0.00 1012.8
20260510114520 43 355 0.0 2.0 0.00 0.00 0.00 85 1017.3
20260510114009 43 352 0.0 2.0 0.00 0.00 0.00 86 1017.3
20260510113507 43 360 0.0 0.0 0.00 0.00 0.00 87 1017.2
20260510113053 0 58 3.0 6.0 0.00 0.00 0.00 1012.7
20260510113034 42 360 0.0 0.0 0.00 0.00 0.00 87 1017.1
20260510112512 42 360 0.0 0.0 0.00 0.00 0.00 87 1017.2
20260510112003 41 360 0.0 0.0 0.00 0.00 0.00 87 1017.1
20260510111548 67 84 3.0 7.0 0.00 0.00 0.00 40 1012.1
20260510111508 41 360 0.0 0.0 0.00 0.00 0.00 86 1017.1
20260510111004 41 360 0.0 0.0 0.00 0.00 0.00 86 1017.0
20260510110504 41 360 0.0 0.0 0.00 0.00 0.00 85 1016.9
20260510110045 67 89 3.0 8.0 0.00 0.00 0.00 42 1011.6
20260510110030 41 360 0.0 0.0 0.00 0.00 0.00 85 1016.8
20260510105506 41 360 0.0 0.0 0.00 0.00 0.00 85 1016.8
20260510105004 41 360 0.0 0.0 0.00 0.00 0.00 85 1016.7
20260510104542 68 72 4.0 7.0 0.00 0.00 0.00 44 1011.5
20260510104519 41 360 0.0 0.0 0.00 0.00 0.00 84 1016.6
20260510104005 41 360 0.0 0.0 0.00 0.00 0.00 84 1016.5
20260510103504 41 360 0.0 0.0 0.00 0.00 0.00 83 1016.5
20260510103035 68 74 3.0 5.0 0.00 0.00 0.00 48 1011.3
20260510103022 42 360 0.0 0.0 0.00 0.00 0.00 83 1016.5
20260510102514 42 360 0.0 0.0 0.00 0.00 0.00 83 1016.4
20260510102007 42 360 0.0 0.0 0.00 0.00 0.00 82 1016.4
20260510101534 69 72 0.0 3.0 0.00 0.00 0.00 51 1011.1
20260510101526 42 360 0.0 0.0 0.00 0.00 0.00 82 1016.3
20260510101008 42 360 0.0 0.0 0.00 0.00 0.00 81 1016.2
20260510100504 42 360 0.0 0.0 0.00 0.00 0.00 81 1016.1
20260510100025 70 104 0.0 5.0 0.00 0.00 0.00 55 1010.6
20260510100011 42 360 0.0 0.0 0.00 0.00 0.00 80 1016.1
20260510095505 42 360 0.0 0.0 0.00 0.00 0.00 79 1016.0
20260510095004 42 360 0.0 0.0 0.00 0.00 0.00 78 1015.9
20260510094521 71 127 3.0 6.0 0.00 0.00 0.00 56 1010.5
20260510094514 42 360 0.0 0.0 0.00 0.00 0.00 78 1015.9
20260510094007 43 360 0.0 0.0 0.00 0.00 0.00 78 1015.8
20260510093507 43 360 0.0 0.0 0.00 0.00 0.00 77 1015.9
20260510093032 43 360 0.0 0.0 0.00 0.00 0.00 76 1015.9
20260510093016 71 122 2.0 4.0 0.00 0.00 0.00 55 1010.1
20260510092507 44 360 0.0 0.0 0.00 0.00 0.00 76 1015.9
20260510092010 44 360 0.0 0.0 0.00 0.00 0.00 75 1015.9
20260510091528 44 360 0.0 0.0 0.00 0.00 0.00 74 1015.9
20260510091514 72 155 0.0 3.0 0.00 0.00 0.00 55 1009.7
20260510091008 44 360 0.0 0.0 0.00 0.00 0.00 73 1015.9
20260510090510 45 360 0.0 0.0 0.00 0.00 0.00 72 1015.8
20260510090040 45 360 0.0 0.0 0.00 0.00 0.00 71 1015.7
20260510090011 72 131 0.0 3.0 0.00 0.00 0.00 55 1009.9
20260510085511 45 360 0.0 0.0 0.00 0.00 0.00 69 1015.7
20260510085003 45 360 0.0 1.0 0.00 0.00 0.00 69 1015.6
20260510084520 46 360 0.0 1.0 0.00 0.00 0.00 68 1015.6
20260510084511 72 117 0.0 4.0 0.00 0.02 0.00 54 1009.9
20260510084003 46 360 0.0 0.0 0.00 0.00 0.00 66 1015.5
20260510083507 46 360 0.0 0.0 0.00 0.00 0.00 66 1015.5
20260510083015 46 360 0.0 0.0 0.00 0.00 0.00 66 1015.4
20260510083008 73 148 0.0 2.0 0.00 0.02 0.00 54 1010.1
20260510082503 46 360 0.0 0.0 0.00 0.00 0.00 65 1015.3
20260510082007 47 360 0.0 0.0 0.00 0.00 0.00 64 1015.2
20260510081519 47 360 0.0 1.0 0.00 0.00 0.00 64 1015.1
20260510081508 73 134 0.0 2.0 0.00 0.02 0.00 54 1010.4
20260510081007 47 360 0.0 1.0 0.00 0.00 0.00 62 1015.1
20260510080504 47 360 0.0 1.0 0.00 0.00 0.00 62 1015.0
20260510080006 47 26 0.0 2.0 0.00 0.00 0.00 63 1014.7
20260510080003 73 152 0.0 1.0 0.00 0.02 0.00 53 1010.0
20260510075507 47 26 0.0 3.0 0.00 0.00 0.00 62 1014.8
20260510075007 47 339 0.0 4.0 0.00 0.00 0.00 62 1014.6
20260510074600 73 150 1.0 4.0 0.00 0.02 0.00 53 1009.9
20260510074509 47 333 1.0 4.0 0.00 0.00 0.00 62 1014.6
20260510074006 47 70 2.0 5.0 0.00 0.00 0.00 62 1014.6
20260510073502 48 44 2.0 5.0 0.00 0.00 0.00 62 1014.6
20260510073106 73 148 0.0 4.0 0.00 0.02 0.00 53 1009.7
20260510073017 48 308 1.0 5.0 0.00 0.00 0.00 62 1014.5
20260510072507 48 54 1.0 5.0 0.00 0.00 0.00 62 1014.3
20260510072007 48 51 2.0 4.0 0.00 0.00 0.00 62 1014.5
20260510071553 72 129 0.0 4.0 0.00 0.02 0.00 54 1009.6
20260510071522 49 42 1.0 4.0 0.00 0.00 0.00 62 1014.4
20260510071007 49 346 1.0 3.0 0.00 0.00 0.00 62 1014.3
20260510070507 49 9 1.0 3.0 0.00 0.00 0.00 62 1014.1
20260510070051 72 132 0.0 2.0 0.00 0.02 0.00 55 1009.4
20260510070028 49 352 1.0 4.0 0.00 0.00 0.00 62 1014.0
20260510065503 49 348 1.0 5.0 0.00 0.00 0.00 62 1014.0
20260510065004 50 30 1.0 5.0 0.00 0.00 0.00 64 1013.9
20260510064548 72 138 0.0 2.0 0.00 0.02 0.00 56 1009.3
20260510064508 50 50 2.0 5.0 0.00 0.00 0.00 64 1013.8
20260510064003 50 342 1.0 5.0 0.00 0.00 0.00 65 1013.7
20260510063507 50 28 1.0 5.0 0.00 0.00 0.00 65 1013.6
20260510063047 72 150 0.0 1.0 0.00 0.02 0.00 56 1009.4
20260510063013 49 32 2.0 5.0 0.00 0.00 0.00 66 1013.5
20260510062504 49 12 1.0 4.0 0.00 0.00 0.00 68 1013.6
20260510062004 48 36 1.0 3.0 0.00 0.00 0.00 72 1013.5
20260510061543 72 143 0.0 1.0 0.00 0.02 0.00 57 1009.5
20260510061516 47 22 0.0 4.0 0.00 0.00 0.00 75 1013.3
20260510061006 46 46 1.0 4.0 0.00 0.00 0.00 79 1013.4
20260510060506 46 74 0.0 3.0 0.00 0.00 0.00 82 1013.4
20260510060040 72 164 0.0 3.0 0.00 0.02 0.00 57 1009.4
20260510060023 47 78 0.0 2.0 0.00 0.00 0.00 82 1013.3
20260510055510 47 90 0.0 1.0 0.00 0.00 0.00 81 1013.1
20260510055006 47 90 0.0 0.0 0.00 0.00 0.00 80 1012.9
20260510054536 72 129 1.0 3.0 0.00 0.02 0.00 57 1009.4
20260510054525 48 90 0.0 0.0 0.00 0.00 0.00 80 1012.8
20260510054005 48 90 0.0 0.0 0.00 0.00 0.00 80 1012.8
20260510053503 48 90 0.0 0.0 0.00 0.00 0.00 79 1012.7
20260510053034 72 135 0.0 1.0 0.00 0.02 0.00 57 1009.3
20260510053010 48 90 0.0 0.0 0.00 0.00 0.00 78 1012.7
20260510052503 49 90 0.0 0.0 0.00 0.00 0.00 77 1012.5
20260510052004 49 90 0.0 0.0 0.00 0.00 0.00 76 1012.4
20260510051530 72 133 0.0 2.0 0.00 0.02 0.00 57 1009.4
20260510051516 49 90 0.0 0.0 0.00 0.00 0.00 75 1012.3
20260510051003 49 90 0.0 1.0 0.00 0.00 0.00 75 1012.3
20260510050504 49 90 0.0 1.0 0.00 0.00 0.00 74 1012.3
20260510050026 72 124 0.0 3.0 0.00 0.02 0.00 56 1009.5
20260510050019 49 84 0.0 1.0 0.00 0.00 0.00 74 1012.2
20260510045507 49 84 0.0 1.0 0.00 0.00 0.00 73 1012.1
20260510045008 50 84 0.0 1.0 0.00 0.00 0.00 73 1012.1
20260510044532 50 84 0.0 1.0 0.00 0.00 0.00 73 1012.1
20260510044525 73 122 1.0 3.0 0.00 0.02 0.02 56 1009.5
20260510044010 50 84 0.0 0.0 0.00 0.00 0.00 72 1011.9
20260510043510 49 84 0.0 0.0 0.00 0.00 0.00 70 1011.8
20260510043028 50 84 0.0 0.0 0.00 0.00 0.00 70 1011.7
20260510043023 73 119 0.0 4.0 0.00 0.02 0.02 55 1009.6
20260510042506 50 84 0.0 0.0 0.00 0.00 0.00 70 1011.6
20260510042005 50 84 0.0 0.0 0.00 0.00 0.00 70 1011.6
20260510041621 74 126 0.0 5.0 0.00 0.02 0.02 54 1009.9
20260510041510 50 84 0.0 0.0 0.00 0.00 0.00 70 1011.6
20260510041005 51 84 0.0 0.0 0.00 0.00 0.00 70 1011.4
20260510040504 51 84 0.0 0.0 0.00 0.00 0.00 69 1011.3
20260510040019 74 123 3.0 6.0 0.00 0.02 0.02 53 1009.7
20260510040016 51 84 0.0 0.0 0.00 0.00 0.00 69 1011.3
20260510035504 51 84 0.0 0.0 0.00 0.00 0.00 68 1011.3
20260510035008 51 84 0.0 0.0 0.00 0.00 0.00 68 1011.3
20260510034525 74 137 0.0 2.0 0.00 0.02 0.02 52 1009.6
20260510034520 51 84 0.0 0.0 0.00 0.00 0.00 69 1011.2
20260510034009 52 84 0.0 0.0 0.00 0.00 0.00 69 1011.2
20260510033506 52 84 0.0 0.0 0.00 0.00 0.00 70 1011.1
20260510033026 53 84 0.0 0.0 0.00 0.00 0.00 69 1011.0
20260510033020 74 113 3.0 4.0 0.00 0.02 0.02 50 1009.5
20260510032507 53 84 0.0 0.0 0.00 0.00 0.00 67 1011.0
20260510032009 53 84 0.0 0.0 0.00 0.00 0.00 66 1011.0
20260510031512 75 124 0.0 1.0 0.00 0.02 0.02 49 1009.6
20260510031510 53 84 0.0 1.0 0.00 0.00 0.00 63 1010.9
20260510031004 53 84 0.0 1.0 0.00 0.00 0.00 62 1011.0
20260510030503 53 84 0.0 0.0 0.00 0.00 0.00 60 1010.9
20260510030021 75 124 1.0 2.0 0.00 0.02 0.02 49 1009.4
20260510030016 54 84 0.0 1.0 0.00 0.00 0.00 62 1010.8
20260510025506 54 84 0.0 1.0 0.00 0.00 0.00 61 1010.7
20260510025004 55 84 0.0 1.0 0.00 0.00 0.00 59 1010.6
20260510024520 55 84 0.0 1.0 0.00 0.00 0.00 55 1010.5
20260510024508 76 124 0.0 1.0 0.00 0.02 0.02 47 1009.3
20260510024004 55 84 0.0 1.0 0.00 0.00 0.00 53 1010.4
20260510023512 56 84 0.0 1.0 0.00 0.00 0.00 52 1010.3
20260510023024 56 84 0.0 2.0 0.00 0.00 0.00 51 1010.2
20260510023007 77 124 0.0 1.0 0.00 0.02 0.02 47 1009.1
20260510022507 56 73 0.0 3.0 0.00 0.00 0.00 51 1010.1
20260510022010 56 72 0.0 3.0 0.00 0.00 0.00 50 1009.9
20260510021529 56 61 0.0 2.0 0.00 0.00 0.00 51 1009.8
20260510021514 77 124 0.0 2.0 0.00 0.02 0.02 47 1008.9
20260510021007 57 63 0.0 1.0 0.00 0.00 0.00 52 1009.8
20260510020507 57 63 0.0 2.0 0.00 0.00 0.00 51 1009.6
20260510020012 57 64 0.0 3.0 0.00 0.00 0.00 51 1009.5
20260510020004 78 125 0.0 2.0 0.00 0.02 0.02 46 1008.7
20260510015505 57 44 1.0 3.0 0.00 0.00 0.00 48 1009.5
20260510015004 57 348 0.0 3.0 0.00 0.00 0.00 49 1009.3
20260510014517 58 338 0.0 4.0 0.00 0.00 0.00 48 1009.2
20260510014503 79 125 0.0 0.0 0.00 0.02 0.02 44 1008.5
20260510014005 58 60 0.0 4.0 0.00 0.00 0.00 49 1009.1
20260510013508 58 56 1.0 4.0 0.00 0.00 0.00 49 1009.0
20260510013024 58 72 0.0 2.0 0.00 0.00 0.00 50 1008.8
20260510013003 80 105 0.0 0.0 0.00 0.02 0.02 41 1008.3
20260510012508 58 72 0.0 2.0 0.00 0.00 0.00 48 1008.7
20260510012008 59 63 0.0 4.0 0.00 0.00 0.00 47 1008.5
20260510011559 82 107 0.0 1.0 0.00 0.02 0.02 39 1008.3
20260510011526 59 54 0.0 6.0 0.00 0.00 0.00 46 1008.3
20260510011008 59 44 0.0 6.0 0.00 0.00 0.00 47 1008.1
20260510010509 60 72 1.0 4.0 0.00 0.00 0.00 45 1008.0
20260510010057 84 103 0.0 1.0 0.00 0.02 0.02 37 1008.3
20260510010026 60 69 2.0 6.0 0.00 0.00 0.00 44 1008.1
20260510005509 60 54 2.0 7.0 0.00 0.00 0.00 43 1007.8
20260510005008 61 69 2.0 9.0 0.00 0.00 0.00 43 1007.7
20260510004555 85 96 0.0 3.0 0.00 0.02 0.02 36 1008.2
20260510004515 62 51 3.0 9.0 0.00 0.00 0.00 42 1007.5
20260510004005 64 74 2.0 7.0 0.00 0.00 0.00 40 1007.5
20260510003505 66 40 3.0 10.0 0.00 0.00 0.00 38 1007.3
20260510003104 86 98 1.0 3.0 0.00 0.02 0.02 35 1008.1
20260510003024 69 59 3.0 14.0 0.00 0.00 0.00 35 1007.2
20260510002505 70 278 7.0 14.0 0.00 0.00 0.00 33 1006.7
20260510002008 70 307 5.0 12.0 0.00 0.00 0.00 33 1006.6
20260510001552 87 105 3.0 6.0 0.00 0.02 0.02 34 1008.0
20260510001524 70 297 6.0 11.0 0.00 0.00 0.00 33 1006.6
20260510001007 70 319 2.0 11.0 0.00 0.00 0.00 33 1006.5
20260510000508 70 292 3.0 11.0 0.00 0.00 0.00 34 1006.3
20260510000048 89 121 0.0 4.0 0.00 0.02 0.02 32 1008.0
20260510000024 70 288 5.0 11.0 0.00 0.00 0.00 33 1006.2
20260509235510 71 242 5.0 15.0 0.00 0.00 0.00 33 1006.2
20260509235008 71 294 4.0 15.0 0.00 0.00 0.00 33 1006.1
20260509234546 92 104 0.0 2.0 0.00 0.02 0.02 23 1008.0
20260509234528 71 281 6.0 14.0 0.00 0.00 0.00 33 1006.0
20260509234010 71 157 4.0 14.0 0.00 0.00 0.00 32 1005.9
20260509233504 71 261 4.0 14.0 0.00 0.00 0.00 32 1005.9
20260509233043 93 81 0.0 1.0 0.00 0.02 0.02 27 1008.0
20260509233023 71 277 4.0 13.0 0.00 0.00 0.00 31 1005.7
20260509232510 72 330 4.0 14.0 0.00 0.00 0.00 32 1005.7
20260509232005 72 236 5.0 14.0 0.00 0.00 0.00 31 1005.7
20260509231642 92 81 0.0 2.0 0.00 0.02 0.02 27 1008.0
20260509231523 72 334 7.0 13.0 0.00 0.00 0.00 31 1005.6
20260509231007 72 275 6.0 18.0 0.00 0.00 0.00 31 1005.6
20260509230510 72 275 8.0 18.0 0.00 0.00 0.00 30 1005.4
20260509230047 95 110 0.0 2.0 0.00 0.02 0.02 23 1008.0
20260509230024 72 350 5.0 13.0 0.00 0.00 0.00 31 1005.4
20260509225508 72 286 2.0 13.0 0.00 0.00 0.00 32 1005.3
20260509225009 72 336 4.0 13.0 0.00 0.00 0.00 31 1005.3
20260509224546 94 122 0.0 2.0 0.00 0.02 0.02 23 1008.0
20260509224532 72 278 5.0 18.0 0.00 0.00 0.00 31 1005.2
20260509224005 72 321 9.0 18.0 0.00 0.00 0.00 31 1005.1
20260509223504 72 288 11.0 18.0 0.00 0.00 0.00 31 1005.3
20260509223031 94 265 0.0 5.0 0.00 0.02 0.02 27 1008.0
20260509223016 72 278 7.0 15.0 0.00 0.00 0.00 30 1005.0
20260509222507 73 248 6.0 16.0 0.00 0.00 0.00 31 1005.1
20260509222006 73 352 5.0 18.0 0.00 0.00 0.00 31 1005.0
20260509221530 92 332 0.0 0.0 0.00 0.02 0.02 27 1008.1
20260509221521 73 313 7.0 18.0 0.00 0.00 0.00 31 1005.0
20260509221011 73 266 4.0 21.0 0.00 0.00 0.00 30 1004.9
20260509220505 73 184 9.0 21.0 0.00 0.00 0.00 30 1004.9
20260509220025 91 259 0.0 4.0 0.00 0.02 0.02 28 1008.1
20260509220003 73 281 9.0 21.0 0.00 0.00 0.00 29 1004.8
20260509215504 73 279 13.0 21.0 0.00 0.00 0.00 28 1004.8
20260509215006 73 280 9.0 21.0 0.00 0.00 0.00 27 1004.6
20260509214524 90 306 1.0 6.0 0.00 0.02 0.02 27 1008.1
20260509214507 73 272 12.0 21.0 0.00 0.00 0.00 26 1004.6
20260509214004 74 311 9.0 19.0 0.00 0.00 0.00 28 1004.3
20260509213504 74 318 9.0 20.0 0.00 0.00 0.00 29 1004.3
20260509213022 92 298 1.0 4.0 0.00 0.02 0.02 27 1008.2
20260509213012 73 267 13.0 20.0 0.00 0.00 0.00 29 1004.3
20260509212504 74 229 10.0 19.0 0.00 0.00 0.00 29 1004.3
20260509212010 74 267 8.0 19.0 0.00 0.00 0.00 29 1004.2
20260509211518 91 188 0.0 3.0 0.00 0.02 0.02 28 1008.5
20260509211516 74 273 7.0 19.0 0.00 0.00 0.00 30 1004.1
20260509211007 74 296 10.0 23.0 0.00 0.00 0.00 30 1004.1
20260509210512 74 279 4.0 23.0 0.00 0.00 0.00 31 1004.0
20260509210022 73 234 7.0 30.0 0.00 0.00 0.00 30 1004.0
20260509210018 91 134 0.0 4.0 0.00 0.02 0.02 30 1008.7
20260509205503 73 298 8.0 30.0 0.00 0.00 0.00 30 1003.9
20260509205003 73 240 12.0 20.0 0.00 0.00 0.00 30 1003.9
20260509204514 91 264 0.0 5.0 0.00 0.02 0.02 31 1008.9
20260509204504 74 287 10.0 25.0 0.00 0.00 0.00 29 1003.9
20260509204004 74 271 10.0 25.0 0.00 0.00 0.00 30 1003.9
20260509203503 74 277 12.0 23.0 0.00 0.00 0.00 30 1003.9
20260509203017 74 267 13.0 21.0 0.00 0.00 0.00 30 1003.9
20260509203013 91 263 0.0 2.0 0.00 0.02 0.02 33 1009.2
20260509202503 73 223 10.0 19.0 0.00 0.00 0.00 30 1003.9
20260509202011 73 305 11.0 24.0 0.00 0.00 0.00 30 1003.9
20260509201513 73 240 13.0 24.0 0.00 0.00 0.00 30 1003.9
20260509201509 92 91 0.0 1.0 0.00 0.02 0.02 33 1009.3
20260509201005 73 284 9.0 20.0 0.00 0.00 0.00 31 1003.9
20260509200506 73 217 11.0 22.0 0.00 0.00 0.00 30 1004.0
20260509200019 72 242 10.0 22.0 0.00 0.00 0.00 30 1004.1
20260509200006 90 99 0.0 2.0 0.00 0.02 0.02 32 1009.6
20260509195508 73 286 12.0 23.0 0.00 0.00 0.00 30 1004.2
20260509195007 72 273 10.0 23.0 0.00 0.00 0.00 31 1004.2
20260509194505 73 263 9.0 21.0 0.00 0.00 0.00 31 1004.2
20260509194502 90 210 0.0 1.0 0.00 0.02 0.02 33 1009.9
20260509194005 73 262 8.0 20.0 0.00 0.00 0.00 30 1004.2
20260509193503 73 241 11.0 24.0 0.00 0.00 0.00 29 1004.2
20260509193100 89 330 0.0 4.0 0.00 0.02 0.02 35 1010.0
20260509193008 73 234 10.0 24.0 0.00 0.00 0.00 30 1004.3
20260509192503 73 263 7.0 15.0 0.00 0.00 0.00 31 1004.4
20260509192008 73 273 6.0 15.0 0.00 0.00 0.00 30 1004.3
20260509191556 88 309 0.0 5.0 0.00 0.02 0.02 35 1010.1
20260509191512 73 243 4.0 20.0 0.00 0.00 0.00 30 1004.3
20260509191008 73 277 5.0 20.0 0.00 0.00 0.00 30 1004.2
20260509190504 72 303 7.0 24.0 0.00 0.00 0.00 29 1004.0
20260509190055 88 256 2.0 6.0 0.00 0.02 0.02 33 1010.5
20260509190018 72 227 10.0 24.0 0.00 0.00 0.00 29 1004.2
20260509185504 73 250 8.0 16.0 0.00 0.00 0.00 29 1004.1
20260509185014 73 272 8.0 17.0 0.00 0.00 0.00 29 1004.0
20260509184550 86 259 0.0 5.0 0.00 0.02 0.02 37 1010.4
20260509184530 73 248 6.0 17.0 0.00 0.00 0.00 29 1003.9
20260509184012 72 202 9.0 15.0 0.00 0.00 0.00 31 1004.0
20260509183514 72 278 6.0 15.0 0.00 0.00 0.00 31 1003.9
20260509183046 85 258 0.0 5.0 0.00 0.02 0.02 41 1010.5
20260509183010 72 275 5.0 18.0 0.00 0.00 0.00 31 1003.9
20260509182503 71 227 4.0 18.0 0.00 0.00 0.00 31 1004.0
20260509182005 71 277 7.0 19.0 0.00 0.00 0.00 31 1004.0
20260509181603 84 267 2.0 10.0 0.00 0.02 0.02 41 1010.7
20260509181509 71 252 6.0 19.0 0.00 0.00 0.00 30 1003.9
20260509181007 71 273 8.0 20.0 0.00 0.00 0.00 31 1004.3
20260509180505 71 265 8.0 20.0 0.00 0.00 0.00 31 1004.2
20260509180105 84 330 1.0 7.0 0.00 0.02 0.02 41 1010.9
20260509180016 71 261 8.0 14.0 0.00 0.00 0.00 31 1004.1
20260509175506 70 278 4.0 13.0 0.00 0.00 0.00 31 1004.3
20260509175004 70 269 6.0 14.0 0.00 0.00 0.00 31 1004.3
20260509174534 84 277 3.0 9.0 0.00 0.03 0.02 44 1011.0
20260509174520 70 295 7.0 17.0 0.00 0.00 0.00 31 1004.2
20260509174005 70 298 7.0 19.0 0.00 0.00 0.00 31 1004.2
20260509173506 70 263 8.0 19.0 0.00 0.00 0.00 31 1004.3
20260509173040 83 264 3.0 8.0 0.00 0.03 0.02 46 1011.1
20260509173023 70 281 8.0 19.0 0.00 0.00 0.00 33 1004.3
20260509172507 71 246 9.0 19.0 0.00 0.00 0.00 34 1004.4
20260509172003 71 269 7.0 16.0 0.00 0.00 0.00 35 1004.3
20260509171528 82 293 4.0 7.0 0.00 0.03 0.02 45 1011.4
20260509171509 71 288 6.0 16.0 0.00 0.00 0.00 38 1004.3
20260509171004 70 221 5.0 16.0 0.00 0.00 0.00 40 1004.4